Time,TemperatureF,DewpointF,PressureIn,WindDirection,WindDirectionDegrees,WindSpeedMPH,WindSpeedGustMPH,Humidity,HourlyPrecipIn,Conditions,Clouds,dailyrainin,SoftwareType,DateUTC
2013-03-28 00:03:00,36.2,30.0,30.27,NW,309,0.0,-999.0,77,-99.99,,,0.00,weatherlink.com 1.10,2013-03-28 05:03:00,
2013-03-28 00:18:00,35.7,30.0,30.28,NW,309,0.0,-999.0,79,-99.99,,,0.00,weatherlink.com 1.10,2013-03-28 05:18:00,
2013-03-28 00:33:00,35.3,30.0,30.27,NW,309,0.0,-999.0,80,-99.99,,,0.00,weatherlink.com 1.10,2013-03-28 05:33:00,
2013-03-28 00:48:00,35.2,30.0,30.27,NW,309,0.0,-999.0,80,-99.99,,,0.00,weatherlink.com 1.10,2013-03-28 05:48:00,
2013-03-28 01:03:00,35.1,30.0,30.27,NW,309,0.0,-999.0,80,-99.99,,,0.00,weatherlink.com 1.10,2013-03-28 06:03:00,
2013-03-28 01:18:00,35.5,30.0,30.27,NW,309,0.0,-999.0,80,-99.99,,,0.00,weatherlink.com 1.10,2013-03-28 06:18:00,
2013-03-28 01:33:00,35.3,30.0,30.27,NW,309,0.0,-999.0,81,-99.99,,,0.00,weatherlink.com 1.10,2013-03-28 06:33:00,
2013-03-28 01:48:00,35.2,30.0,30.28,NW,309,0.0,-999.0,82,-99.99,,,0.00,weatherlink.com 1.10,2013-03-28 06:48:00,
2013-03-28 02:03:00,34.8,30.0,30.28,NW,309,0.0,-999.0,83,-99.99,,,0.00,weatherlink.com 1.10,2013-03-28 07:03:00,
2013-03-28 02:20:00,34.7,31.0,30.28,NW,309,0.0,-999.0,86,-99.99,,,0.00,weatherlink.com 1.10,2013-03-28 07:20:00,
2013-03-28 02:33:00,34.6,31.0,30.27,NW,309,0.0,-999.0,85,-99.99,,,0.00,weatherlink.com 1.10,2013-03-28 07:33:00,
2013-03-28 02:48:00,34.3,31.0,30.28,NW,309,0.0,-999.0,86,-99.99,,,0.00,weatherlink.com 1.10,2013-03-28 07:48:00,
2013-03-28 03:03:00,33.9,30.0,30.28,NW,309,0.0,-999.0,86,-99.99,,,0.00,weatherlink.com 1.10,2013-03-28 08:03:00,
2013-03-28 03:33:00,33.1,30.0,30.27,NW,309,0.0,-999.0,88,-99.99,,,0.00,weatherlink.com 1.10,2013-03-28 08:33:00,
2013-03-28 03:48:00,32.6,30.0,30.28,NW,309,0.0,-999.0,88,-99.99,,,0.00,weatherlink.com 1.10,2013-03-28 08:48:00,
2013-03-28 04:03:00,32.4,30.0,30.28,NW,309,0.0,-999.0,89,-99.99,,,0.00,weatherlink.com 1.10,2013-03-28 09:03:00,
2013-03-28 04:18:00,32.7,30.0,30.28,NW,309,0.0,-999.0,89,-99.99,,,0.00,weatherlink.com 1.10,2013-03-28 09:18:00,
2013-03-28 04:33:00,33.2,30.0,30.29,NW,309,0.0,-999.0,87,-99.99,,,0.00,weatherlink.com 1.10,2013-03-28 09:33:00,
2013-03-28 04:48:00,33.8,31.0,30.29,NW,309,0.0,-999.0,88,-99.99,,,0.00,weatherlink.com 1.10,2013-03-28 09:48:00,
2013-03-28 05:03:00,34.1,31.0,30.30,NW,309,0.0,-999.0,88,-99.99,,,0.00,weatherlink.com 1.10,2013-03-28 10:03:00,
2013-03-28 05:18:00,34.6,31.0,30.30,NW,309,0.0,-999.0,87,-99.99,,,0.00,weatherlink.com 1.10,2013-03-28 10:18:00,
2013-03-28 05:33:00,35.0,32.0,30.31,NW,309,0.0,-999.0,87,-99.99,,,0.00,weatherlink.com 1.10,2013-03-28 10:33:00,
2013-03-28 05:48:00,35.3,32.0,30.31,NW,309,0.0,-999.0,88,-99.99,,,0.00,weatherlink.com 1.10,2013-03-28 10:48:00,
2013-03-28 06:03:00,34.9,32.0,30.31,NW,309,0.0,-999.0,88,-99.99,,,0.00,weatherlink.com 1.10,2013-03-28 11:03:00,
2013-03-28 06:18:00,34.7,32.0,30.31,NW,309,0.0,-999.0,89,-99.99,,,0.00,weatherlink.com 1.10,2013-03-28 11:18:00,
2013-03-28 06:33:00,34.2,32.0,30.32,NW,309,0.0,-999.0,90,-99.99,,,0.00,weatherlink.com 1.10,2013-03-28 11:33:00,
2013-03-28 06:48:00,33.9,31.0,30.33,NW,309,0.0,-999.0,90,-99.99,,,0.00,weatherlink.com 1.10,2013-03-28 11:48:00,
2013-03-28 07:03:00,33.9,32.0,30.33,NW,309,0.0,-999.0,91,-99.99,,,0.00,weatherlink.com 1.10,2013-03-28 12:03:00,
2013-03-28 07:18:00,33.9,32.0,30.34,NW,309,0.0,-999.0,91,-99.99,,,0.00,weatherlink.com 1.10,2013-03-28 12:18:00,
2013-03-28 07:33:00,34.0,32.0,30.34,NW,309,0.0,-999.0,92,-99.99,,,0.00,weatherlink.com 1.10,2013-03-28 12:33:00,
2013-03-28 07:48:00,35.4,33.0,30.33,NW,309,0.0,-999.0,92,-99.99,,,0.00,weatherlink.com 1.10,2013-03-28 12:48:00,
2013-03-28 08:03:00,38.0,35.0,30.34,NW,309,0.0,-999.0,90,-99.99,,,0.00,weatherlink.com 1.10,2013-03-28 13:03:00,
2013-03-28 08:18:00,40.3,37.0,30.34,NW,309,0.0,-999.0,86,-99.99,,,0.00,weatherlink.com 1.10,2013-03-28 13:18:00,
2013-03-28 08:33:00,40.9,36.0,30.35,NW,309,0.0,-999.0,83,-99.99,,,0.00,weatherlink.com 1.10,2013-03-28 13:33:00,
2013-03-28 08:48:00,41.3,37.0,30.35,NW,309,1.0,-999.0,83,-99.99,,,0.00,weatherlink.com 1.10,2013-03-28 13:48:00,
2013-03-28 09:03:00,41.7,37.0,30.35,NNW,337,3.0,-999.0,83,-99.99,,,0.00,weatherlink.com 1.10,2013-03-28 14:03:00,
2013-03-28 09:18:00,42.5,37.0,30.35,NNW,336,5.0,-999.0,82,-99.99,,,0.00,weatherlink.com 1.10,2013-03-28 14:18:00,
2013-03-28 09:33:00,43.3,38.0,30.36,NNW,333,0.0,-999.0,81,-99.99,,,0.00,weatherlink.com 1.10,2013-03-28 14:33:00,
2013-03-28 09:48:00,44.5,38.0,30.35,NW,323,3.0,-999.0,78,-99.99,,,0.00,weatherlink.com 1.10,2013-03-28 14:48:00,
2013-03-28 10:03:00,45.6,38.0,30.36,NW,322,2.0,-999.0,76,-99.99,,,0.00,weatherlink.com 1.10,2013-03-28 15:03:00,
2013-03-28 10:18:00,46.2,38.0,30.36,NNW,331,4.0,-999.0,73,-99.99,,,0.00,weatherlink.com 1.10,2013-03-28 15:18:00,
2013-03-28 10:33:00,48.1,35.0,30.36,NNW,327,5.0,-999.0,62,-99.99,,,0.00,weatherlink.com 1.10,2013-03-28 15:33:00,
2013-03-28 10:48:00,50.4,34.0,30.35,NNW,348,4.0,-999.0,53,-99.99,,,0.00,weatherlink.com 1.10,2013-03-28 15:48:00,
2013-03-28 11:03:00,51.5,29.0,30.35,North,11,5.0,-999.0,43,-99.99,,,0.00,weatherlink.com 1.10,2013-03-28 16:03:00,
2013-03-28 11:18:00,51.8,29.0,30.35,NE,46,5.0,-999.0,41,-99.99,,,0.00,weatherlink.com 1.10,2013-03-28 16:18:00,
2013-03-28 11:33:00,53.7,30.0,30.34,North,350,10.0,-999.0,40,-99.99,,,0.00,weatherlink.com 1.10,2013-03-28 16:33:00,
2013-03-28 11:48:00,54.3,31.0,30.34,ENE,70,0.0,-999.0,41,-99.99,,,0.00,weatherlink.com 1.10,2013-03-28 16:48:00,
2013-03-28 12:03:00,54.6,29.0,30.34,NNW,328,7.0,-999.0,37,-99.99,,,0.00,weatherlink.com 1.10,2013-03-28 17:03:00,
2013-03-28 12:18:00,55.2,28.0,30.33,NNE,16,0.0,-999.0,35,-99.99,,,0.00,weatherlink.com 1.10,2013-03-28 17:18:00,
2013-03-28 12:33:00,55.8,28.0,30.33,North,349,4.0,-999.0,35,-99.99,,,0.00,weatherlink.com 1.10,2013-03-28 17:33:00,
2013-03-28 12:48:00,56.6,30.0,30.32,NNW,345,6.0,-999.0,36,-99.99,,,0.00,weatherlink.com 1.10,2013-03-28 17:48:00,
2013-03-28 13:03:00,57.1,30.0,30.31,WNW,285,0.0,-999.0,35,-99.99,,,0.00,weatherlink.com 1.10,2013-03-28 18:03:00,
2013-03-28 13:18:00,57.7,29.0,30.31,NNW,330,0.0,-999.0,34,-99.99,,,0.00,weatherlink.com 1.10,2013-03-28 18:18:00,
2013-03-28 13:33:00,57.9,31.0,30.30,NNW,344,4.0,-999.0,36,-99.99,,,0.00,weatherlink.com 1.10,2013-03-28 18:33:00,
2013-03-28 13:48:00,58.5,31.0,30.30,NNW,348,6.0,-999.0,35,-99.99,,,0.00,weatherlink.com 1.10,2013-03-28 18:48:00,
2013-03-28 14:03:00,59.0,33.0,30.29,North,9,7.0,-999.0,37,-99.99,,,0.00,weatherlink.com 1.10,2013-03-28 19:03:00,
2013-03-28 14:18:00,59.3,31.0,30.28,North,351,5.0,-999.0,34,-99.99,,,0.00,weatherlink.com 1.10,2013-03-28 19:18:00,
2013-03-28 14:33:00,59.5,31.0,30.27,NW,304,0.0,-999.0,34,-99.99,,,0.00,weatherlink.com 1.10,2013-03-28 19:33:00,
2013-03-28 14:48:00,60.1,32.0,30.26,NNW,333,10.0,-999.0,35,-99.99,,,0.00,weatherlink.com 1.10,2013-03-28 19:48:00,
2013-03-28 15:03:00,59.9,31.0,30.26,NNE,22,4.0,-999.0,33,-99.99,,,0.00,weatherlink.com 1.10,2013-03-28 20:03:00,
2013-03-28 15:18:00,60.4,30.0,30.25,North,355,0.0,-999.0,32,-99.99,,,0.00,weatherlink.com 1.10,2013-03-28 20:18:00,
2013-03-28 15:33:00,60.9,32.0,30.25,NW,325,8.0,-999.0,34,-99.99,,,0.00,weatherlink.com 1.10,2013-03-28 20:33:00,
2013-03-28 15:48:00,60.7,32.0,30.24,North,5,4.0,-999.0,34,-99.99,,,0.00,weatherlink.com 1.10,2013-03-28 20:48:00,
2013-03-28 16:03:00,61.1,33.0,30.24,NNW,333,8.0,-999.0,35,-99.99,,,0.00,weatherlink.com 1.10,2013-03-28 21:03:00,
2013-03-28 16:18:00,61.1,33.0,30.24,NNW,348,7.0,-999.0,35,-99.99,,,0.00,weatherlink.com 1.10,2013-03-28 21:18:00,
2013-03-28 16:33:00,60.7,31.0,30.23,NNW,343,7.0,-999.0,33,-99.99,,,0.00,weatherlink.com 1.10,2013-03-28 21:33:00,
2013-03-28 16:48:00,61.1,31.0,30.23,NNW,335,6.0,-999.0,32,-99.99,,,0.00,weatherlink.com 1.10,2013-03-28 21:48:00,
2013-03-28 17:03:00,61.0,33.0,30.23,NNW,333,6.0,-999.0,35,-99.99,,,0.00,weatherlink.com 1.10,2013-03-28 22:03:00,
2013-03-28 17:18:00,61.2,32.0,30.23,NNW,342,4.0,-999.0,34,-99.99,,,0.00,weatherlink.com 1.10,2013-03-28 22:18:00,
2013-03-28 17:33:00,60.9,33.0,30.23,NNW,331,1.0,-999.0,35,-99.99,,,0.00,weatherlink.com 1.10,2013-03-28 22:33:00,
2013-03-28 17:48:00,60.7,32.0,30.23,North,355,3.0,-999.0,34,-99.99,,,0.00,weatherlink.com 1.10,2013-03-28 22:48:00,
2013-03-28 18:03:00,60.2,37.0,30.23,NNW,333,4.0,-999.0,42,-99.99,,,0.00,weatherlink.com 1.10,2013-03-28 23:03:00,
2013-03-28 18:18:00,59.4,34.0,30.24,NW,325,5.0,-999.0,38,-99.99,,,0.00,weatherlink.com 1.10,2013-03-28 23:18:00,
2013-03-28 18:33:00,59.2,36.0,30.23,NW,312,0.0,-999.0,42,-99.99,,,0.00,weatherlink.com 1.10,2013-03-28 23:33:00,
2013-03-28 18:48:00,58.4,37.0,30.24,NW,312,0.0,-999.0,45,-99.99,,,0.00,weatherlink.com 1.10,2013-03-28 23:48:00,
2013-03-28 19:03:00,57.3,35.0,30.24,NW,312,0.0,-999.0,44,-99.99,,,0.00,weatherlink.com 1.10,2013-03-29 00:03:00,
2013-03-28 19:18:00,55.5,35.0,30.25,NW,312,0.0,-999.0,46,-99.99,,,0.00,weatherlink.com 1.10,2013-03-29 00:18:00,
2013-03-28 19:33:00,53.9,34.0,30.25,NW,312,0.0,-999.0,48,-99.99,,,0.00,weatherlink.com 1.10,2013-03-29 00:33:00,
2013-03-28 19:48:00,53.0,34.0,30.25,NW,312,0.0,-999.0,49,-99.99,,,0.00,weatherlink.com 1.10,2013-03-29 00:48:00,
2013-03-28 20:03:00,51.8,34.0,30.25,NW,312,0.0,-999.0,50,-99.99,,,0.00,weatherlink.com 1.10,2013-03-29 01:03:00,
2013-03-28 20:18:00,51.0,34.0,30.25,NW,312,0.0,-999.0,53,-99.99,,,0.00,weatherlink.com 1.10,2013-03-29 01:18:00,
2013-03-28 20:33:00,50.5,35.0,30.26,NW,312,0.0,-999.0,56,-99.99,,,0.00,weatherlink.com 1.10,2013-03-29 01:33:00,
2013-03-28 20:48:00,49.8,35.0,30.26,NW,312,0.0,-999.0,58,-99.99,,,0.00,weatherlink.com 1.10,2013-03-29 01:48:00,
2013-03-28 21:03:00,48.5,35.0,30.27,NW,312,0.0,-999.0,61,-99.99,,,0.00,weatherlink.com 1.10,2013-03-29 02:03:00,
2013-03-28 21:18:00,48.2,36.0,30.27,NW,312,0.0,-999.0,62,-99.99,,,0.00,weatherlink.com 1.10,2013-03-29 02:18:00,
2013-03-28 21:33:00,47.5,35.0,30.27,NW,312,0.0,-999.0,63,-99.99,,,0.00,weatherlink.com 1.10,2013-03-29 02:33:00,
2013-03-28 21:48:00,46.8,35.0,30.27,NW,312,0.0,-999.0,65,-99.99,,,0.00,weatherlink.com 1.10,2013-03-29 02:48:00,
2013-03-28 22:03:00,46.0,35.0,30.27,NW,312,0.0,-999.0,65,-99.99,,,0.00,weatherlink.com 1.10,2013-03-29 03:03:00,
2013-03-28 22:18:00,45.3,34.0,30.28,NW,312,0.0,-999.0,66,-99.99,,,0.00,weatherlink.com 1.10,2013-03-29 03:18:00,
2013-03-28 22:33:00,44.6,34.0,30.28,NW,312,0.0,-999.0,67,-99.99,,,0.00,weatherlink.com 1.10,2013-03-29 03:33:00,
2013-03-28 22:48:00,44.2,34.0,30.28,NW,312,0.0,-999.0,68,-99.99,,,0.00,weatherlink.com 1.10,2013-03-29 03:48:00,
2013-03-28 23:03:00,43.8,35.0,30.28,NW,312,0.0,-999.0,71,-99.99,,,0.00,weatherlink.com 1.10,2013-03-29 04:03:00,
2013-03-28 23:18:00,42.9,34.0,30.28,NW,312,0.0,-999.0,72,-99.99,,,0.00,weatherlink.com 1.10,2013-03-29 04:18:00,
2013-03-28 23:34:00,42.7,35.0,30.28,NW,312,0.0,-999.0,75,-99.99,,,0.00,weatherlink.com 1.10,2013-03-29 04:34:00,
2013-03-28 23:48:00,42.5,36.0,30.28,NW,312,0.0,-999.0,78,-99.99,,,0.00,weatherlink.com 1.10,2013-03-29 04:48:00,